This is the latest recevied weather packets stored in our database for station/object N7CEE. If no packets are shown the sender has not sent any weather packets the latest 10 day(s).
| Time | Temp. | Humidity | Pressure | Rain* | Wind** | Luminosity | Snow |
|---|---|---|---|---|---|---|---|
| 1777904683 | 8.89° C | 53% | 1021.4 hPa | 0 mm | - | 72 W/m² | - |
| 1777904380 | 8.89° C | 53% | 1021.8 hPa | 0 mm | - | 69 W/m² | - |
| 1777904077 | 8.89° C | 55% | 1021.6 hPa | 0 mm | - | 65 W/m² | - |
| 1777903773 | 8.33° C | 55% | 1021.6 hPa | 0 mm | - | 58 W/m² | - |
| 1777903470 | 8.33° C | 55% | 1021.5 hPa | 0 mm | - | 53 W/m² | - |
| 1777903167 | 8.33° C | 54% | 1021.4 hPa | 0 mm | - | 52 W/m² | - |
| 1777902863 | 8.33° C | 54% | 1021.3 hPa | 0 mm | - | 45 W/m² | - |
| 1777902561 | 8.33° C | 54% | 1021.4 hPa | 0 mm | - | 40 W/m² | - |
| 1777902257 | 8.33° C | 54% | 1021.6 hPa | 0 mm | - | 39 W/m² | - |
| 1777901955 | 7.78° C | 53% | 1021.6 hPa | 0 mm | - | 28 W/m² | - |
| 1777901653 | 8.33° C | 54% | 1021.4 hPa | 0 mm | - | 28 W/m² | - |
| 1777901349 | 7.78° C | 54% | 1021.3 hPa | 0 mm | - | 28 W/m² | - |
| 1777901047 | 7.78° C | 54% | 1021.4 hPa | 0 mm | - | 23 W/m² | - |
| 1777900745 | 7.78° C | 56% | 1021.4 hPa | 0 mm | - | 20 W/m² | - |
| 1777900441 | 7.78° C | 56% | 1021.3 hPa | 0 mm | - | 20 W/m² | - |
| 1777900138 | 7.78° C | 56% | 1020.8 hPa | 0 mm | - | 15 W/m² | - |
| 1777899835 | 7.78° C | 55% | 1021 hPa | 0 mm | - | 11 W/m² | - |
| 1777899532 | 7.78° C | 55% | 1021.3 hPa | 0 mm | - | 11 W/m² | - |
| 1777899229 | 7.22° C | 55% | 1020.8 hPa | 0 mm | - | 9 W/m² | - |
| 1777898926 | 7.22° C | 56% | 1020.8 hPa | 0 mm | - | 5 W/m² | - |
| 1777898624 | 7.22° C | 56% | 1021 hPa | 0 mm | - | 4 W/m² | - |
| 1777898321 | 7.22° C | 57% | 1020.7 hPa | 0 mm | - | 2 W/m² | - |
| 1777898018 | 7.22° C | 57% | 1021 hPa | 0 mm | - | 1 W/m² | - |
| 1777897714 | 7.22° C | 57% | 1020.8 hPa | 0 mm | - | 1 W/m² | - |
| 1777897411 | 7.78° C | 57% | 1020.7 hPa | 0 mm | - | 0 W/m² | - |
* Rain latest hour (hover to see other rain measurements)
** Current wind speed in m/s (hover to see current wind gust speed)